www.pogodaiklimat.ru

Погода и климат >> Архив погоды >> Япония >> Омаэдзаки


ПОГОДА в Омаэдзаки

  • Прогноз погоды в Омаэдзаки
  • Монитор погоды в Омаэдзаки

АРХИВ ПОГОДЫ в Омаэдзаки

Время (UTC), дата Ветер
(напр.,м/с)
 
Видим.   Явления Облачность Т
(С)
Тd
(С)
f
(%)
Тe
(С)
Тes
(С)
Комфортность P
(гПа)
Po
(гПа)
Тmin
(С)
Tmax
(С)
R
(мм)
R24
(мм)
S
(см)
13 9.06 СВ 7 20 км н/о +19.8 +16.3 80 +22 +22 комфорт 1004.9 999.1
14 9.06 СВ 7 20 км слаб. дождь н/о +20.0 +15.9 77 +22 +22 комфорт 1004.5 998.7
15 9.06 СВ 6 20 км слаб. дождь н/о +19.9 +16.2 79 +22 +22 комфорт 1003.9 998.1
16 9.06 СВ 7 20 км слаб. дождь н/о +19.9 +16.2 79 +22 +22 комфорт 1003.2 997.4
17 9.06 СВ 7 20 км слаб. дождь н/о +20.0 +15.9 77 +22 +22 комфорт 1003.1 997.3
18 9.06 СВ 6 20 км слаб. дождь н/о +19.9 +16.4 80 +22 +22 комфорт 1002.5 996.7 0.0
19 9.06 СВ 5 20 км слаб. дождь н/о +20.2 +16.7 80 +23 +23 комфорт 1001.9 996.1
20 9.06 СВ 6 20 км в посл. час дождь н/о +20.3 +16.2 77 +23 +23 комфорт 1001.9 996.1
21 9.06 СВ 5 20 км {дождь} н/о +20.7 +16.1 75 +24 +24 комфорт 1002.2 996.4
22 9.06 СВ 6 20 км н/о +20.9 +16.3 75 +24 +24 комфорт 1002.6 996.8
23 9.06 СВ 5 20 км в посл. час дождь н/о +21.1 +16.7 76 +25 +25 комфорт 1002.5 996.7
00 10.06 СВ 6 20 км {дождь} н/о +21.1 +16.3 74 +24 +24 комфорт 1002.1 996.3 +19.5 0.0
01 10.06 СВ 6 18 км слаб. дождь н/о +21.1 +16.7 76 +25 +25 комфорт 1001.9 996.1
02 10.06 СВ 5 20 км слаб. дождь н/о +20.8 +16.8 78 +24 +24 комфорт 1001.9 996.1
03 10.06 СВ 6 20 км слаб. дождь н/о +21.1 +16.7 76 +25 +25 комфорт 1001.4 995.6
04 10.06 СВ 6 20 км в посл. час дождь н/о +21.1 +16.9 77 +25 +25 комфорт 1001.1 995.3
05 10.06 С 4 4000 м сильн. дождь н/о +18.9 +17.6 92 +20 +20 1002.5 996.7
06 10.06 С 3 5000 м дождь н/о +18.6 +18.4 99 +20 +20 1002.4 996.5 19
07 10.06 С 4 5000 м слаб. дождь н/о +18.4 +18.1 98 +19 +19 1002.6 996.7
08 10.06 С 4 5000 м дождь н/о +18.3 +18.1 99 +19 +19 1003.0 997.1
09 10.06 СВ 4 11 км слаб. дождь н/о +18.2 +17.6 96 +18 +18 1003.0 997.1
10 10.06 СВ 4 20 км слаб. дождь н/о +18.3 +17.7 96 +19 +19 1003.3 997.4
11 10.06 СВ 5 20 км слаб. дождь н/о +18.4 +17.6 95 +19 +19 1003.5 997.6
12 10.06 СВ 6 20 км в посл. час дождь н/о +19.1 +16.7 86 +20 +20 1003.2 997.4 +21.4 29
13 10.06 СВ 5 20 км н/о +19.8 +16.1 79 +22 +22 комфорт 1002.0 996.2
14 10.06 СВ 7 20 км н/о +19.7 +15.6 77 +21 +21 комфорт 1003.1 997.3
15 10.06 С 3 20 км н/о +18.1 +15.9 87 +18 +18 1003.8 997.9
16 10.06 С 3 20 км н/о +18.6 +15.7 83 +20 +20 1004.1 998.2
17 10.06 СВ 2 20 км н/о +18.8 +16.1 84 +20 +20 1004.2 998.3
18 10.06 С 2 20 км н/о +18.5 +16.8 90 +20 +20 1004.2 998.3
19 10.06 СВ 1 20 км н/о +18.8 +15.5 81 +21 +21 комфорт 1004.6 998.7
20 10.06 С 2 20 км н/о +17.9 +16.4 91 +18 +18 1005.1 999.2
21 10.06 С 3 20 км н/о +18.9 +17.2 90 +21 +21 комфорт 1005.6 999.7
22 10.06 СВ 4 20 км н/о +20.0 +16.7 81 +23 +23 комфорт 1005.8 1000.0
23 10.06 СВ 5 20 км н/о +20.9 +15.9 73 +24 +24 комфорт 1006.1 1000.3
00 11.06 В 3 20 км н/о +21.1 +15.4 70 +24 +24 комфорт 1006.1 1000.3 +17.9
01 11.06 СВ 2 20 км н/о +21.5 +16.3 72 +25 +25 комфорт 1006.0 1000.2
02 11.06 Ю 2 20 км н/о +22.5 +16.3 68 +27 +27 душно 1005.9 1000.1
03 11.06 Ю 4 20 км н/о +22.5 +16.5 69 +27 +27 душно 1005.8 1000.0
04 11.06 ЮВ 3 20 км н/о +21.7 +16.0 70 +25 +25 комфорт 1005.5 999.7
05 11.06 ЮВ 3 20 км н/о +21.3 +16.5 74 +25 +25 комфорт 1005.6 999.8
06 11.06 ЮВ 4 20 км слаб. дождь н/о +20.3 +16.4 78 +23 +23 комфорт 1005.6 999.8 0.5
07 11.06 В 4 20 км в посл. час дождь н/о +20.6 +16.0 75 +24 +24 комфорт 1005.5 999.7
08 11.06 В 5 20 км слаб. дождь н/о +20.0 +15.7 76 +22 +22 комфорт 1005.2 999.4
09 11.06 ЮВ 5 18 км слаб. дождь н/о +19.3 +17.1 87 +21 +21 комфорт 1005.9 1000.0
10 11.06 В 5 10 км слаб. дождь н/о +18.8 +17.0 89 +20 +20 1006.1 1000.2
11 11.06 ЮВ 5 6000 м слаб. дождь н/о +18.6 +17.6 94 +19 +19 1006.8 1000.9
12 11.06 ЮВ 5 5000 м дождь н/о +17.9 +16.8 93 +17 +17 1007.0 1001.1 +23.2 9
13 11.06 В 4 4700 м слаб. дождь н/о +17.7 +17.2 97 +17 +17 1007.3 1001.4
14 11.06 В 4 3700 м дождь н/о +17.8 +17.3 97 +18 +18 1007.1 1001.2
15 11.06 В 4 7000 м слаб. дождь н/о +17.4 +16.9 97 +17 +17 1006.7 1000.8
16 11.06 В 4 17 км слаб. дождь н/о +18.1 +17.3 95 +18 +18 1006.5 1000.6
17 11.06 В 4 20 км слаб. дождь н/о +17.8 +16.5 92 +18 +18 1006.6 1000.7
18 11.06 С 4 5000 м дождь н/о +16.9 +16.6 98 +16 +16 1007.2 1001.3 16
19 11.06 В 3 20 км в посл. час дождь н/о +17.3 +16.7 96 +17 +17 1006.8 1000.9
20 11.06 В 2 20 км н/о +17.3 +16.3 94 +18 +18 1007.1 1001.2
21 11.06 В 2 20 км {дождь} н/о +18.0 +16.3 90 +19 +19 1007.5 1001.6
22 11.06 В 3 20 км н/о +18.0 +15.6 86 +18 +18 1007.9 1002.0
23 11.06 В 2 20 км н/о +18.7 +15.6 82 +20 +20 1008.1 1002.2
00 12.06 СВ 2 20 км {дождь} н/о +19.3 +15.8 80 +22 +22 комфорт 1008.4 1002.5 +16.5 16
01 12.06 СВ 3 20 км н/о +20.5 +16.5 78 +24 +24 комфорт 1008.1 1002.3
02 12.06 СВ 3 20 км н/о +21.4 +16.8 75 +25 +25 комфорт 1007.9 1002.1
03 12.06 СВ 3 20 км н/о +21.2 +16.4 74 +25 +25 комфорт 1007.8 1002.0
04 12.06 В 3 20 км н/о +22.0 +15.8 68 +26 +26 душно 1007.4 1001.6
05 12.06 В 3 20 км н/о +21.9 +15.7 68 +26 +26 душно 1007.3 1001.5
06 12.06 ЮВ 4 20 км н/о +22.0 +15.6 67 +26 +26 душно 1007.2 1001.4
07 12.06 ЮВ 4 20 км н/о +21.3 +15.2 68 +24 +24 комфорт 1007.3 1001.5
08 12.06 В 4 20 км н/о +21.1 +15.9 72 +24 +24 комфорт 1007.5 1001.7
09 12.06 В 4 20 км н/о +20.8 +16.0 74 +24 +24 комфорт 1008.1 1002.3
10 12.06 В 4 20 км н/о +20.5 +15.5 73 +24 +24 комфорт 1009.3 1003.4
11 12.06 В 4 20 км н/о +20.3 +14.9 71 +23 +23 комфорт 1009.6 1003.7
12 12.06 СВ 4 20 км н/о +19.3 +17.1 87 +21 +21 комфорт 1010.0 1004.1 +22.6
13 12.06 СВ 4 20 км н/о +18.9 +17.2 90 +20 +20 1010.7 1004.8
14 12.06 СВ 4 20 км н/о +19.0 +17.0 88 +21 +21 комфорт 1010.5 1004.6
15 12.06 СВ 5 20 км н/о +18.9 +17.2 90 +20 +20 1010.7 1004.8
16 12.06 СВ 4 20 км н/о +18.6 +17.1 91 +20 +20 1010.7 1004.8
17 12.06 С 4 20 км н/о +18.5 +16.7 89 +19 +19 1010.7 1004.8
18 12.06 С 3 20 км н/о +18.3 +16.6 90 +19 +19 1010.7 1004.8
19 12.06 С 4 20 км н/о +18.5 +16.5 88 +19 +19 1010.9 1005.0
20 12.06 СВ 4 20 км н/о +18.5 +16.3 87 +19 +19 1011.1 1005.2
21 12.06 СВ 4 20 км н/о +19.2 +16.6 85 +21 +21 комфорт 1011.7 1005.8
22 12.06 СВ 4 20 км н/о +20.0 +17.0 83 +23 +23 комфорт 1012.5 1006.6
23 12.06 СВ 4 20 км н/о +21.2 +17.8 81 +25 +25 комфорт 1012.9 1007.0
00 13.06 СВ 4 20 км н/о +21.2 +17.0 77 +25 +25 комфорт 1013.4 1007.5 +18.3
01 13.06 СВ 3 20 км н/о +22.1 +17.5 75 +27 +27 душно 1013.4 1007.6
02 13.06 В 3 20 км н/о +23.1 +18.0 73 +29 +29 очень
душно
1013.3 1007.5
03 13.06 ЮВ 5 20 км н/о +23.0 +17.9 73 +28 +28 душно 1012.9 1007.1
04 13.06 В 5 20 км н/о +23.5 +17.9 71 +28 +28 душно 1012.9 1007.1
05 13.06 ЮВ 5 20 км н/о +23.5 +18.2 72 +28 +28 душно 1012.5 1006.7
06 13.06 ЮВ 5 20 км н/о +23.8 +17.8 69 +28 +28 душно 1012.4 1006.6
07 13.06 ЮВ 5 20 км н/о +23.8 +17.6 68 +28 +28 душно 1012.3 1006.5
08 13.06 ЮВ 5 20 км н/о +23.4 +17.2 68 +29 +29 душно 1012.7 1006.9
09 13.06 ЮВ 3 20 км н/о +23.2 +17.2 69 +28 +28 душно 1013.1 1007.3
10 13.06 ЮВ 2 20 км н/о +22.3 +17.0 72 +27 +27 душно 1013.5 1007.7
11 13.06 ЮВ 3 20 км н/о +22.1 +17.9 77 +27 +27 душно 1013.9 1008.1
12 13.06 ЮВ 2 20 км н/о +21.9 +17.9 78 +27 +27 душно 1014.1 1008.3 +24.8
13 13.06 ЮВ 3 20 км н/о +21.9 +18.1 79 +27 +27 душно 1014.4 1008.6
14 13.06 В 2 20 км н/о +21.7 +18.5 82 +26 +26 душно 1014.3 1008.4
15 13.06 В 2 20 км н/о +21.5 +18.7 84 +26 +26 душно 1014.2 1008.3
16 13.06 В 2 20 км н/о +21.4 +19.2 87 +26 +26 душно 1014.2 1008.3
17 13.06 С 2 20 км н/о +20.4 +18.5 89 +25 +25 комфорт 1013.8 1007.9
18 13.06 С 2 20 км н/о +19.9 +18.2 90 +23 +23 комфорт 1013.5 1007.6
19 13.06 СВ 3 20 км н/о +20.2 +18.9 92 +24 +24 комфорт 1013.6 1007.7
20 13.06 СВ 3 20 км н/о +20.5 +19.0 91 +25 +25 комфорт 1013.7 1007.8
21 13.06 СВ 4 20 км н/о +21.1 +18.1 83 +25 +25 комфорт 1013.5 1007.6
22 13.06 СВ 5 20 км н/о +21.7 +18.5 82 +26 +26 душно 1013.5 1007.7
23 13.06 СВ 3 20 км н/о +22.3 +19.5 84 +28 +28 душно 1013.5 1007.7
00 14.06 СВ 3 20 км н/о +22.9 +18.9 78 +29 +29 очень
душно
1013.5 1007.7 +19.8
01 14.06 В 4 20 км н/о +23.4 +19.1 77 +30 +30 очень
душно
1013.5 1007.7
02 14.06 В 6 20 км н/о +24.2 +19.3 74 +29 +29 душно 1013.2 1007.4
03 14.06 В 6 20 км н/о +24.9 +18.8 69 +30 +30 душно 1012.6 1006.8
04 14.06 В 6 20 км н/о +23.5 +18.2 72 +28 +28 душно 1012.7 1006.9
05 14.06 В 5 20 км н/о +23.7 +18.6 73 +28 +28 душно 1012.5 1006.7
06 14.06 В 5 20 км н/о +23.2 +18.3 74 +29 +29 душно 1012.2 1006.4
07 14.06 В 5 20 км н/о +22.6 +17.5 73 +28 +28 душно 1011.6 1005.8
08 14.06 В 5 20 км н/о +22.4 +17.8 75 +27 +27 душно 1011.6 1005.8
09 14.06 В 6 20 км слаб. дождь н/о +22.0 +18.2 79 +27 +27 душно 1011.3 1005.5
10 14.06 В 5 15 км слаб. дождь н/о +21.2 +18.6 85 +26 +26 душно 1011.6 1005.8
11 14.06 В 4 14 км слаб. дождь н/о +20.8 +18.6 87 +25 +25 комфорт 1011.1 1005.2
12 14.06 В 5 5000 м дождь н/о +20.3 +18.4 89 +24 +24 комфорт 1010.8 1004.9 +25.0 2
13 14.06 СВ 5 20 км слаб. дождь н/о +20.2 +17.2 83 +23 +23 комфорт 1009.8 1003.9
14 14.06 В 5 9000 м слаб. дождь н/о +19.9 +18.2 90 +23 +23 комфорт 1009.0 1003.1
15 14.06 СВ 5 19 км слаб. дождь н/о +19.4 +17.4 88 +21 +21 комфорт 1007.5 1001.6
16 14.06 СВ 9 7000 м слаб. дождь н/о +19.2 +18.0 93 +20 +20 1006.2 1000.3
17 14.06 СВ 6 2100 м дождь н/о +18.9 +18.1 95 +20 +20 1005.5 999.6
18 14.06 В 7 3100 м дождь н/о +18.8 +18.3 97 +20 +20 1004.2 998.3 19
19 14.06 В 7 4000 м дождь н/о +18.6 +17.8 95 +19 +19 1003.1 997.2
20 14.06 СВ 10 3600 м дождь н/о +18.2 +17.2 94 +17 +17 1003.0 997.1
21 14.06 СВ 13 4400 м слаб. дождь н/о +17.7 +16.9 95 +16 +16 1002.5 996.6
22 14.06 СВ 11 5000 м слаб. дождь н/о +17.4 +16.4 94 +16 +16 1000.8 994.9
23 14.06 СВ 12 16 км слаб. дождь н/о +18.5 +16.1 86 +18 +18 999.7 993.9
00 15.06 СВ 12 20 км в посл. час дождь н/о +19.9 +15.6 76 +21 +21 комфорт 999.0 993.2 +17.4 31
01 15.06 СВ 13 8000 м слаб. дождь н/о +19.2 +16.1 82 +20 +20 998.3 992.5
02 15.06 СВ 13 9000 м слаб. дождь н/о +18.8 +16.6 87 +19 +19 997.5 991.7
03 15.06 СВ 11 3900 м дождь н/о +18.4 +17.1 92 +18 +18 996.3 990.5
04 15.06 СВ 11 5000 м слаб. дождь н/о +18.2 +17.2 94 +17 +17 996.0 990.2
05 15.06 СВ 10 16 км в посл. час дождь н/о +19.0 +17.2 89 +19 +19 994.9 989.1
06 15.06 СВ 10 16 км в посл. час дождь н/о +19.1 +17.4 90 +20 +20 994.1 988.3 12
07 15.06 СВ 9 7000 м слаб. дождь н/о +18.9 +17.4 91 +19 +19 993.2 987.4
08 15.06 СВ 8 11 км слаб. дождь н/о +19.0 +18.2 95 +20 +20 992.8 987.0
09 15.06 СВ 8 9000 м слаб. дождь н/о +18.9 +18.3 96 +20 +20 992.9 987.1
10 15.06 СВ 5 12 км слаб. дождь н/о +19.4 +18.8 96 +21 +21 комфорт 993.1 987.3
11 15.06 СВ 5 9000 м слаб. дождь н/о +19.2 +18.9 98 +21 +21 комфорт 993.1 987.3
12 15.06 СВ 3 20 км в посл. час дождь н/о +19.4 +18.8 96 +22 +22 комфорт 992.9 987.1 +20.0 15
13 15.06 СВ 2 13 км слаб. дождь н/о +20.0 +19.5 97 +24 +24 комфорт 991.3 985.5
14 15.06 ЮЗ 8 4300 м слаб. дождь н/о +22.5 +21.7 95 +30 +30 очень
душно
989.7 984.0
15 15.06 ЮЗ 10 11 км в посл. час дождь н/о +22.6 +20.0 85 +29 +29 очень
душно
989.1 983.4
16 15.06 ЮЗ 13 10 км в посл. час дождь н/о +22.0 +19.8 87 +28 +28 душно 988.3 982.6
17 15.06 З 12 20 км в посл. час дождь н/о +20.4 +17.8 85 +23 +23 комфорт 989.7 984.0
18 15.06 З 10 11 км {дождь} н/о +20.2 +17.4 84 +23 +23 комфорт 990.4 984.7 8
19 15.06 З 11 18 км н/о +20.6 +17.2 81 +23 +23 комфорт 991.5 985.8
20 15.06 З 11 16 км н/о +20.5 +16.7 79 +23 +23 комфорт 992.9 987.1
21 15.06 З 12 20 км н/о +21.2 +16.8 76 +25 +25 комфорт 993.6 987.9
22 15.06 З 12 20 км н/о +21.7 +16.9 74 +26 +26 душно 994.0 988.3
23 15.06 З 12 20 км н/о +22.3 +16.8 71 +27 +27 душно 994.3 988.6
00 16.06 З 12 20 км н/о +22.9 +16.5 67 +28 +28 душно 995.1 989.4 +19.4 8
01 16.06 З 13 20 км н/о +23.4 +16.7 66 +28 +28 душно 995.4 989.7
02 16.06 З 13 20 км н/о +23.9 +15.7 60 +27 +27 жарко 995.6 989.9
03 16.06 З 12 20 км н/о +24.3 +16.8 63 +28 +28 душно 996.1 990.4
04 16.06 З 13 20 км н/о +25.0 +15.6 56 +28 +28 жарко 996.3 990.6
05 16.06 З 13 20 км н/о +25.4 +15.1 53 +28 +28 жарко 996.9 991.2
06 16.06 З 13 20 км н/о +25.0 +14.8 53 +28 +28 жарко 997.6 991.9
07 16.06 З 13 20 км н/о +24.5 +14.9 55 +27 +27 жарко 998.1 992.4
08 16.06 З 12 20 км н/о +23.9 +14.9 57 +27 +27 жарко 998.5 992.8
09 16.06 З 11 20 км н/о +22.8 +14.9 61 +27 +27 душно 999.6 993.9
10 16.06 З 12 20 км н/о +21.7 +14.1 62 +25 +25 комфорт 1000.6 994.8
11 16.06 З 10 20 км н/о +21.0 +13.7 63 +23 +23 комфорт 1001.8 996.0
12 16.06 З 13 20 км н/о +20.6 +14.0 66 +22 +22 комфорт 1002.7 996.9 +25.5
13 16.06 З 10 20 км н/о +20.0 +13.7 67 +21 +21 комфорт 1003.6 997.8
14 16.06 З 10 20 км н/о +19.7 +13.9 69 +21 +21 комфорт 1004.8 999.0

 

Местоположение метеостанции Омаэдзаки (Япония): широта 34.60 долгота 138.21 высота над уровнем моря 47 м.

В архиве по умолчанию представлена погода в Омаэдзаки за последнюю неделю. Архивные данные за месяц целиком и за предыдущие месяцы, начиная с января 2011 года, Вы можете получить, выбрав интересующий диапазон дат из раскрывающегося списка и нажав кнопку "Ввод!".


*Определитесь, кто Вы:
робот инопланетянин человек

Внимание! Время в таблицах - всемирное. Для получения местного времени необходимо прибавить поправку, которая равна 9 ч.

Смотрите также архив погоды в соседних городах и на ближайших метеорологических станциях:

Погода в Сидзуоке (Япония) (46 км)
Погода в Хамамацу (Япония) (48 км)
Погода в Иродзаки (Япония) (59 км)
Погода в Мисиме (Япония) (88 км)
Погода в Аджиро (Япония) (95 км)
Погода на Фудзияме (Япония) (98 км)
Погода в Ирако (Япония) (102 км)
Погода на Осиме (Япония) (108 км)
Погода в Ииде (Япония) (109 км)
Погода на Озере Кавагучи (Япония) (112 км)

Пояснения к столбцам:

Ветер - указаны скорость ветра в м/с - средняя за 10 мин, порывы в срок и между сроками (в фигурных скобках) и направление, откуда дует ветер: С - северный, СВ - северо-восточный, В - восточный, ЮВ - юго-восточный, Ю - южный, ЮЗ - юго-западный, З - западный, СЗ - северо-западный.
Видимость - горизонтальная дальность видимости в метрах или километрах. При видимости от 1 до 10 км при отсутствии осадков обычно наблюдается дымка, при ухудшении видимости до 1 км и менее - туман. В сухую погоду видимость может ухудшаться дымом, пылью или мглою.
Явления - указаны атмосферные явления, наблюдавшиеся в срок или в последний час перед сроком; фигурными скобками обозначены явления, наблюдавшиеся между сроками (за 1-3 часа до срока); квадратными скобками обозначены град или гололедные отложения с указанием их диаметра в мм.
Облачность - указаны через наклонную черту общая и нижняя облачность в баллах и высота нижней границы облаков в метрах; квадратными скобками обозначены формы облаков: Ci - перистые, Cs - перисто-слоистые, Cc - перисто-кучевые, Ac - высококучевые, As - высокослоистые, Sc - слоисто-кучевые, Ns - слоисто-дождевые, Cu - кучевые, Cb - кучево-дождевые. Подробнее классификацию облаков см. в Атласе облаков (PDF).
T - Температура воздуха - температура, измеренная на высоте 2 м над землей.
Td - Температура точки росы - температура, при понижении до которой содержащийся в воздухе водяной пар достигнет насыщения.
f - Относительная влажность воздуха - влажноcть воздуха, измеренная на высоте 2 м над землей.
Te - Эффективная температура - температура, которую ощущает одетый по сезону человек в тени. Характеристика душности погоды. При расчете учитывается влияние влажности воздуха и скорости ветра на теплоощущения человека.
Tes - Эффективная температура на солнце - температура, которую ощущает человек, с поправкой на солнечный нагрев. Характеристика знойности погоды. Зависит от высоты солнца над горизонтом, облачности и скорости ветра. Ночью, в пасмурную погоду, а также при ветре 12 м/с и более поправка равна нулю.
P - Атмосферное давление - приведенное к уровню моря атмосферное давление.
Po - Атмосферное давление - измеренное на уровне метеостанции атмосферное давление.
Tmin - Минимальная температура - минимум температуры воздуха на высоте 2 м над землей.
Tmax - Максимальная температура - максимум температуры воздуха на высоте 2 м над землей.
R - Количество осадков - Количество выпавших осадков за период времени, мм. При наведении курсора мыши на число - период времени, за который выпало указанное количество осадков.
R24 - Количество осадков - Количество выпавших осадков за 24 часа, мм.
S - Снежный покров - Высота снежного покрова, см. При наведении курсора мыши на число - состояние снежного покрова и степень покрытия местности в баллах.